This demonstration page uses our WeatherBlox Daily Observations layout. Learn more.

Left ArrowRight Arrow

41.55636, -103.73856

Hourly Observations for May 17, 2022

Temp ( °F °C ) Dew Point ( °F °C ) Humidity (%) Winds ( mph kmh ) Pressure ( in mb ) Visibility ( mi km ) Precip ( " mm )
12:58 am 00:58 Mostly Cloudy 64 17.5 41 5.1 44 44 SE 8 13 29.74 1007 10 16 0.00 0.00
1:58 am 01:58 Mostly Clear 59 15 42 5.8 54 54 SE 13 20 29.70 1006 10 16 0.00 0.00
2:58 am 02:58 Clear 57 14.1 42 5.7 57 57 SSE 8 13 29.69 1005 10 16 0.00 0.00
3:58 am 03:58 Clear 52 11.2 42 5.5 68 68 SW 6 9 29.71 1006 10 16 0.00 0.00
4:58 am 04:58 Clear 48 8.7 41 4.9 77 77 SW 7 11 29.74 1007 10 16 0.00 0.00
5:58 am 05:58 Sunny 51 10.3 42 5.3 71 71 W 7 11 29.74 1007 10 16 0.00 0.00
6:58 am 06:58 Sunny 52 10.9 44 6.8 76 76 SW 5 7 29.76 1008 10 16 0.00 0.00
7:58 am 07:58 Sunny 58 14.5 46 7.5 63 63 WNW 9 15 29.77 1008 10 16 0.00 0.00
8:58 am 08:58 Sunny 65 18.1 47 8.4 53 53 NW 16 26 29.76 1008 10 16 0.00 0.00
9:58 am 09:58 Sunny 69 20.5 46 7.5 43 43 NW 13 20 29.76 1008 10 16 0.00 0.00
10:58 am 10:58 Sunny 73 22.5 46 7.8 39 39 N 13 20 29.77 1008 10 16 0.00 0.00
11:58 am 11:58 Sunny 75 23.7 47 8.5 38 38 N 8 13 29.77 1008 10 16 0.00 0.00
12:58 pm 12:58 Sunny 76 24.2 46 7.8 35 35 NNE 14 22 29.77 1008 10 16 0.00 0.00
1:58 pm 13:58 Sunny 77 24.9 46 7.5 33 33 NE 14 22 29.77 1008 10 16 0.00 0.00
2:58 pm 14:58 Partly Cloudy 79 26.2 44 6.7 29 29 NNE 13 20 29.76 1008 10 16 0.00 0.00
3:58 pm 15:58 Sunny 77 25.2 44 6.9 31 31 NNE 9 15 29.78 1008 10 16 0.00 0.00
4:58 pm 16:58 Sunny 77 25 44 6.7 31 31 N 7 11 29.78 1009 10 16 0.00 0.00
5:58 pm 17:58 Sunny 76 24.6 41 4.9 28 28 Calm 29.78 1008 10 16 0.00 0.00
6:58 pm 18:58 Mostly Cloudy 64 17.9 48 8.7 55 55 NE 14 22 29.84 1011 10 16 0.00 0.00
7:58 pm 19:58 Sunny with Thunderstorms 61 16.2 48 8.9 62 62 E 8 13 29.86 1011 10 16 0.00 0.00
8:58 pm 20:58 Mostly Cloudy with Nearby Thunderstorms 61 16 47 8.2 60 60 ESE 8 13 29.88 1012 10 16 0.00 0.00
9:58 pm 21:58 Mostly Cloudy with Nearby Thunderstorms 59 14.8 49 9.6 71 71 NNE 10 17 29.93 1014 10 16 0.00 0.00
10:58 pm 22:58 Cloudy 56 13.6 49 9.2 75 75 ESE 3 6 29.91 1013 10 16 0.00 0.00
11:58 pm 23:58 Mostly Cloudy 53 11.5 47 8.5 82 82 SW 5 7 29.90 1012 10 16 0.00 0.00

Powered by AerisWeather